Mount Holly, NJ

8:15 AM EST on December 08, 2019 (GMT -0500)
South Jersey Regional

Weather History for KVAY - September, 2019

Change the Weather History Date:

Tuesday, September 24, 2019

  Actual Average (WUND) Record (WUND)
Temperature  
Mean Temperature 67 °F -  
Max Temperature 78 °F - - (-1)
Min Temperature 55 °F - - (-1)
Cooling Degree Days 2    
Growing Degree Days 17 (Base 50)    
Moisture  
Dew Point 58 °F    
Average Humidity 71    
Maximum Humidity 93    
Minimum Humidity 43    
Precipitation  
Precipitation 0.00 in - - ()
Sea Level Pressure  
Sea Level Pressure 29.83 in    
Wind  
Wind Speed 4 mph (WNW)    
Max Wind Speed 9 mph    
Max Gust Speed 18 mph    
Visibility 9 miles    
Events Rain    
Averages and records for this station are not official NWS values.
T = Trace of Precipitation, MM = Missing Value Source: NWS Daily Summary

Daily Weather History Graph

Daily Weather History Graph

Search for Another Location

Airport or City:

Astronomy

Sep. 24, 2019 Rise Set
Actual Time 6:48 AM EDT 6:53 PM EDT
Civil Twilight 6:21 AM EDT 7:20 PM EDT
Nautical Twilight 5:50 AM EDT 7:52 PM EDT
Astronomical Twilight 5:18 AM EDT 8:24 PM EDT
Moon 1:31 AM EDT (9/24) 4:37 PM EDT (9/24)
Length of Visible Light 12h 58m
Length of Day
12h 04m
Waning Crescent, 23% of the Moon is Illuminated
Sep 24
Waning Crescent
Sep 28
New
Oct 5
First Quarter
Oct 13
Full
Oct 21
Last Quarter

Hourly Weather History & Observations

Time (EDT) Temp. Dew Point Humidity Pressure Visibility Wind Dir Wind Speed Gust Speed Precip Events Conditions
12:43 AM 72.0 °F 66.9 °F 84% 29.81 in 2.5 mi WSW 4.6 mph 18.4 mph N/A Rain Rain
12:51 AM 71.6 °F 68.0 °F 88% 29.80 in - North - - N/A   Unknown
12:54 AM 72.0 °F 68.0 °F 87% 29.80 in - North - - N/A   Unknown
1:54 AM 71.1 °F 68.0 °F 90% 29.80 in 10.0 mi Calm Calm - N/A   Mostly Cloudy
2:54 AM 70.0 °F 64.9 °F 84% 29.79 in 10.0 mi West 4.6 mph - N/A   Partly Cloudy
3:54 AM 66.0 °F 63.0 °F 90% 29.79 in 10.0 mi Calm Calm - N/A   Clear
4:54 AM 63.0 °F 61.0 °F 93% 29.80 in 9.0 mi Calm Calm - N/A   Clear
5:54 AM 61.0 °F 59.0 °F 93% 29.81 in 4.0 mi Calm Calm - N/A   Clear
6:00 AM 61.0 °F 59.0 °F 93% 29.82 in 1.2 mi West 3.5 mph - N/A   Clear
6:11 AM 61.0 °F 59.0 °F 93% 29.82 in 3.0 mi Calm Calm - N/A   Clear
6:54 AM 61.0 °F 59.0 °F 93% 29.83 in 10.0 mi Calm Calm - N/A   Clear
7:54 AM 66.0 °F 60.1 °F 81% 29.84 in 10.0 mi WSW 4.6 mph - N/A   Clear
8:54 AM 70.0 °F 57.9 °F 65% 29.85 in 10.0 mi West 6.9 mph - N/A   Clear
9:54 AM 71.1 °F 55.0 °F 57% 29.86 in 10.0 mi Variable 6.9 mph - N/A   Clear
10:54 AM 73.9 °F 55.0 °F 52% 29.86 in 10.0 mi WNW 6.9 mph - N/A   Partly Cloudy
11:54 AM 73.9 °F 54.0 °F 50% 29.84 in 10.0 mi WNW 9.2 mph 16.1 mph N/A   Partly Cloudy
12:54 PM 75.0 °F 54.0 °F 48% 29.83 in 10.0 mi Variable 6.9 mph - N/A   Mostly Cloudy
1:54 PM 75.9 °F 53.1 °F 45% 29.81 in 10.0 mi West 9.2 mph 16.1 mph N/A   Partly Cloudy
2:54 PM 77.0 °F 53.1 °F 43% 29.81 in 10.0 mi WNW 9.2 mph 18.4 mph N/A   Mostly Cloudy
3:54 PM 77.0 °F 53.1 °F 43% 29.81 in 10.0 mi West 9.2 mph - N/A   Scattered Clouds
4:54 PM 75.9 °F 53.1 °F 45% 29.80 in 10.0 mi West 8.1 mph - N/A   Partly Cloudy
5:54 PM 75.0 °F 52.0 °F 44% 29.82 in 10.0 mi NW 8.1 mph - N/A   Overcast
6:54 PM 72.0 °F 53.1 °F 51% 29.83 in 10.0 mi North 9.2 mph - N/A   Overcast
7:54 PM 68.0 °F 53.1 °F 59% 29.85 in 10.0 mi Calm Calm - N/A   Partly Cloudy
8:54 PM 62.1 °F 54.0 °F 75% 29.87 in 10.0 mi Calm Calm - N/A   Clear
9:54 PM 60.1 °F 54.0 °F 80% 29.88 in 10.0 mi North - - N/A   Clear
10:54 PM 57.9 °F 53.1 °F 84% 29.89 in - North - - N/A   Unknown
11:54 PM 55.9 °F 53.1 °F 90% 29.89 in 10.0 mi Calm Calm - N/A   Clear